Change the Weather History Date:

Monday, December 19, 2011

  Actual Average Record
Temperature  
Mean Temperature 30 °F 31 °F  
Max Temperature 38 °F 45 °F 64 °F (1981)
Min Temperature 21 °F 17 °F -10 °F (1989)
Degree Days  
Heating Degree Days 35 34  
Month to date heating degree days 657 629  
Since 1 July heating degree days 1785 1862  
Cooling Degree Days 0 0  
Month to date cooling degree days 0 0  
Year to date cooling degree days 1118 719  
Moisture  
Dew Point 23 °F    
Average Humidity 74    
Maximum Humidity 92    
Minimum Humidity 56    
Precipitation  
Precipitation T in 0.01 in 0.17 in (2006)
Month to date precipitation 0.56 0.34  
Year to date precipitation 9.48 13.64  
Snow  
Snow 0.00 in - - ()
Month to date snowfall 0.0  
Snow Depth 0.00 in    
Sea Level Pressure  
Sea Level Pressure 30.00 in    
Wind  
Wind Speed 16 mph (North)    
Max Wind Speed 33 mph    
Max Gust Speed 41 mph    
Visibility 2 miles    
Events Fog , Snow    
T = Trace of Precipitation, MM = Missing Value Source: NWS Daily Summary

Daily Weather History Graph

Daily Weather History Graph

Search for Another Location

Airport or City:

Trip Planner

Search our weather history database for the weather conditions in past years. The results will help you decide how hot, cold, wet, or windy it might be!

Date:

Astronomy

Dec. 19, 2011 Rise Set
Actual Time 7:06 AM MST 4:42 PM MST
Civil Twilight 6:37 AM MST 5:11 PM MST
Nautical Twilight 6:04 AM MST 5:44 PM MST
Astronomical Twilight 5:32 AM MST 6:16 PM MST
Moon 1:24 AM MST 12:38 PM MST
Length of Visible Light 10h 34m
Length of Day
9h 35m
Waning Crescent, 30% of the Moon is Illuminated
Dec 19
Waning Crescent
Dec 24
New
Dec 31
First Quarter
Jan 9
Full
Jan 16
Last Quarter

Hourly Weather History & Observations

Time (MST) Temp. Windchill Dew Point Humidity Pressure Visibility Wind Dir Wind Speed Gust Speed Precip Events Conditions
12:54 AM 37.0 °F 29.8 °F 27.0 °F 67% 29.72 in 10.0 mi West 10.4 mph - N/A   Clear
1:54 AM 36.0 °F 28.5 °F 26.1 °F 67% 29.70 in 10.0 mi West 10.4 mph - N/A   Clear
2:54 AM 34.0 °F 26.0 °F 24.1 °F 67% 29.70 in 10.0 mi WNW 10.4 mph - N/A   Clear
3:54 AM 34.0 °F 28.0 °F 25.0 °F 70% 29.73 in 10.0 mi West 6.9 mph - N/A   Clear
4:54 AM 37.9 °F 31.5 °F 26.1 °F 62% 29.81 in 10.0 mi NNW 9.2 mph - N/A   Overcast
5:54 AM 36.0 °F 28.0 °F 21.0 °F 55% 29.88 in 10.0 mi North 11.5 mph - N/A   Overcast
6:54 AM 34.0 °F 22.7 °F 21.0 °F 59% 29.95 in 10.0 mi North 19.6 mph 26.5 mph N/A   Overcast
7:54 AM 32.0 °F 19.8 °F 21.0 °F 64% 29.99 in 10.0 mi North 20.7 mph 31.1 mph N/A   Overcast
8:39 AM 32.0 °F 19.5 °F 23.0 °F 69% 29.99 in 5.0 mi North 21.9 mph 29.9 mph 0.00 in Snow Light Snow
8:54 AM 30.9 °F 19.1 °F 23.0 °F 72% 29.99 in 4.0 mi North 18.4 mph 29.9 mph 0.00 in Snow Light Snow
8:59 AM 30.2 °F 16.2 °F 24.8 °F 80% 29.99 in 1.8 mi North 25.3 mph 31.1 mph 0.00 in Snow Light Snow
9:12 AM 28.4 °F 14.7 °F 24.8 °F 86% 29.99 in 0.5 mi North 21.9 mph 31.1 mph 0.00 in Fog , Snow Snow
9:22 AM 28.4 °F 15.8 °F 26.6 °F 93% 29.98 in 0.2 mi North 18.4 mph - 0.00 in Fog , Snow Snow
9:29 AM 28.4 °F 16.6 °F 26.6 °F 93% 29.98 in 0.5 mi North 16.1 mph 25.3 mph 0.00 in Fog , Snow Snow
9:52 AM 28.4 °F 16.2 °F 26.6 °F 93% 29.99 in 0.5 mi North 17.3 mph 23.0 mph 0.00 in Fog , Snow Snow
9:54 AM 28.9 °F 16.9 °F 27.0 °F 92% 30.00 in 0.5 mi North 17.3 mph 23.0 mph 0.00 in Fog , Snow Snow
10:54 AM 28.9 °F 18.6 °F 27.0 °F 92% 30.03 in 0.2 mi North 12.7 mph 20.7 mph 0.00 in Fog , Snow Heavy Snow
11:54 AM 28.9 °F 18.2 °F 27.0 °F 92% 30.00 in 0.2 mi North 13.8 mph - 0.00 in Fog , Snow Heavy Snow
12:21 PM 28.4 °F 15.8 °F 26.6 °F 93% 29.96 in 0.2 mi North 18.4 mph 23.0 mph 0.00 in Fog , Snow Heavy Snow
12:30 PM 28.4 °F 16.2 °F 26.6 °F 93% 29.97 in 0.2 mi North 17.3 mph - 0.00 in Fog , Snow Heavy Snow
12:54 PM 28.0 °F 15.7 °F 26.1 °F 92% 29.99 in 0.5 mi NNE 17.3 mph - 0.00 in Fog , Snow Snow
1:01 PM 28.4 °F 17.5 °F 26.6 °F 93% 29.98 in 0.2 mi NNE 13.8 mph - 0.00 in Fog , Snow Heavy Snow
2:54 PM 27.0 °F 13.9 °F 24.1 °F 89% 30.01 in 0.5 mi North 18.4 mph - 0.00 in Fog , Snow Snow
3:13 PM 26.6 °F 13.1 °F 24.8 °F 93% 29.98 in 0.5 mi North 19.6 mph 27.6 mph 0.00 in Fog , Snow Snow
3:22 PM 26.6 °F 14.7 °F 24.8 °F 93% 29.99 in 0.5 mi North 15.0 mph 27.6 mph 0.00 in Fog , Snow Snow
3:54 PM 26.1 °F 14.0 °F 23.0 °F 88% 30.04 in 0.5 mi North 15.0 mph - 0.00 in Fog , Snow Snow
4:26 PM 26.6 °F 12.4 °F 23.0 °F 86% 30.00 in 0.2 mi North 21.9 mph 31.1 mph 0.00 in Fog Light Freezing Fog
4:51 PM 26.6 °F 13.4 °F 23.0 °F 86% 30.01 in 0.5 mi North 18.4 mph 27.6 mph 0.00 in Fog Light Freezing Fog
4:54 PM 26.1 °F 12.0 °F 23.0 °F 88% 30.03 in 0.8 mi North 20.7 mph 27.6 mph 0.00 in   Mist
5:18 PM 26.6 °F 12.7 °F 23.0 °F 86% 30.01 in 1.0 mi North 20.7 mph 27.6 mph N/A   Mist
5:29 PM 26.6 °F 12.7 °F 23.0 °F 86% 30.00 in 0.5 mi North 20.7 mph 33.4 mph N/A Fog Light Freezing Fog
5:38 PM 26.6 °F 12.7 °F 23.0 °F 86% 30.00 in 1.0 mi North 20.7 mph 28.8 mph N/A   Mist
6:15 PM 24.8 °F 8.7 °F 23.0 °F 93% 30.01 in 0.8 mi North 26.5 mph 35.7 mph N/A   Mist
6:23 PM 24.8 °F 8.1 °F 21.2 °F 86% 30.01 in 0.5 mi North 28.8 mph 38.0 mph N/A Fog Light Freezing Fog
6:52 PM 24.8 °F 10.3 °F 21.2 °F 86% 30.03 in 1.0 mi North 20.7 mph 35.7 mph N/A   Mist
6:54 PM 25.0 °F 11.3 °F 21.9 °F 88% 30.07 in 1.0 mi North 18.4 mph 34.5 mph N/A   Mist
7:17 PM 24.8 °F 9.6 °F 21.2 °F 86% 30.04 in 0.8 mi North 23.0 mph 36.8 mph N/A   Mist
7:54 PM 21.9 °F 4.8 °F 19.9 °F 92% 30.13 in 0.8 mi North 26.5 mph 40.3 mph N/A   Mist
8:18 PM 21.2 °F 4.5 °F 19.4 °F 93% 30.08 in 1.0 mi North 24.2 mph 34.5 mph N/A   Mist
8:52 PM 21.2 °F 5.6 °F 19.4 °F 93% 30.09 in 0.8 mi North 20.7 mph 28.8 mph N/A   Mist
8:54 PM 21.9 °F 6.2 °F 19.0 °F 89% 30.16 in 0.8 mi North 21.9 mph 28.8 mph N/A   Mist
9:38 PM 21.2 °F 6.0 °F 19.4 °F 93% 30.11 in 1.0 mi North 19.6 mph 27.6 mph N/A   Mist
9:54 PM 21.0 °F 6.2 °F 19.0 °F 92% 30.20 in 1.0 mi North 18.4 mph 24.2 mph N/A   Mist
10:08 PM 21.2 °F 6.4 °F 17.6 °F 86% 30.11 in 1.2 mi NNW 18.4 mph - N/A   Overcast
10:54 PM 21.0 °F 7.6 °F 18.0 °F 88% 30.19 in 1.5 mi NNW 15.0 mph - N/A   Overcast
11:05 PM 21.2 °F 6.8 °F 17.6 °F 86% 30.10 in 2.5 mi NNW 17.3 mph - N/A   Overcast
11:20 PM 21.2 °F 7.8 °F 17.6 °F 86% 30.10 in 1.5 mi NNW 15.0 mph - N/A   Overcast
11:36 PM 21.2 °F 8.3 °F 17.6 °F 86% 30.10 in 2.0 mi NNW 13.8 mph - N/A   Overcast
11:50 PM 21.2 °F 8.3 °F 19.4 °F 93% 30.09 in 1.8 mi NNW 13.8 mph - N/A   Overcast
11:54 PM 21.0 °F 8.6 °F 19.0 °F 92% 30.17 in 1.5 mi NNW 12.7 mph - N/A   Overcast